User: anonymous   Login
Location: Unspecified
(0.0000°N, 0.0000°E)
Time: 16:19:15
(UTC+00:00)
Language:

IBEX - Orbit

View from above orbital plane
View from above orbital plane
View from above satellite
View from above satellite

Ground track
Ground track

The orbit data is extracted from the following two-line orbital elements,

1 33401U 08051A   17218.24856028 -.00002000  00000-0  00000+0 0  9991
2 33401  30.2157  94.3610 7460229   3.0421   7.6340  0.10111689  3699
Epoch (UTC): 06 August 2017 05:57:55
Eccentricity: 0.7460229
inclination: 30.2157°
perigee height: 43050 km
apogee height: 333428 km
right ascension of ascending node: 94.3610°
argument of perigee: 3.0421°
revolutions per day: 0.10111689
mean anomaly at epoch: 7.6340°
orbit number at epoch: 369

The dashed part of the orbit path shows where the satellite is in the earth's shadow,  

DLR